TimeEST,TemperatureF,Dew PointF,Humidity,Sea Level PressureIn,VisibilityMPH,Wind Direction,Wind SpeedMPH,Gust SpeedMPH,PrecipitationIn,Events,Conditions,WindDirDegrees,DateUTC
12:15 AM,41.0,39.2,93,30.07,3.0,ENE,11.5,20.7,N/A,Rain,Light Rain,70,2012-12-17 05:15:00
12:35 AM,41.0,39.2,93,30.07,4.0,East,15.0,23.0,N/A,Rain,Light Rain,80,2012-12-17 05:35:00
1:15 AM,41.0,39.2,93,30.06,3.0,East,15.0,23.0,N/A,Rain,Light Rain,80,2012-12-17 06:15:00
1:35 AM,41.0,39.2,93,30.06,5.0,East,15.0,21.9,N/A,Rain,Light Rain,80,2012-12-17 06:35:00
1:55 AM,41.0,39.2,93,30.06,3.0,ENE,13.8,19.6,N/A,Rain,Light Rain,70,2012-12-17 06:55:00
2:15 AM,42.8,39.2,87,30.05,2.5,East,13.8,19.6,0.01,Rain,Light Rain,80,2012-12-17 07:15:00
2:35 AM,42.8,39.2,87,30.04,2.0,ENE,12.7,19.6,0.01,Rain,Light Rain,70,2012-12-17 07:35:00
2:55 AM,42.8,39.2,87,30.04,1.5,ENE,12.7,20.7,0.02,,Overcast,60,2012-12-17 07:55:00
3:15 AM,42.8,39.2,87,30.04,1.5,ENE,12.7,19.6,N/A,Rain,Light Rain,70,2012-12-17 08:15:00
3:35 AM,42.8,39.2,87,30.02,1.8,ENE,11.5,21.9,N/A,,Overcast,60,2012-12-17 08:35:00
3:55 AM,42.8,41.0,93,30.02,1.8,NE,17.3,23.0,N/A,,Drizzle,50,2012-12-17 08:55:00
4:15 AM,42.8,41.0,93,30.01,2.0,ENE,12.7,25.3,N/A,Rain,Light Rain,60,2012-12-17 09:15:00
4:35 AM,42.8,41.0,93,30.00,2.0,NE,17.3,24.2,N/A,Rain,Light Rain,50,2012-12-17 09:35:00
4:55 AM,42.8,41.0,93,30.00,2.0,NE,18.4,24.2,N/A,Rain,Light Rain,50,2012-12-17 09:55:00
5:15 AM,42.8,41.0,93,30.00,2.0,NE,16.1,24.2,N/A,,Light Drizzle,50,2012-12-17 10:15:00
5:35 AM,42.8,41.0,93,30.00,2.0,NE,16.1,21.9,0.01,Rain,Light Rain,50,2012-12-17 10:35:00
5:55 AM,42.8,41.0,93,30.00,1.8,NE,16.1,-,0.01,Rain,Light Rain,50,2012-12-17 10:55:00
6:15 AM,42.8,42.8,100,30.00,1.5,NE,18.4,23.0,N/A,Rain,Light Rain,50,2012-12-17 11:15:00
6:35 AM,42.8,42.8,100,30.00,1.8,NE,17.3,23.0,N/A,Rain,Light Rain,50,2012-12-17 11:35:00
6:55 AM,44.6,42.8,93,30.00,1.8,ENE,12.7,-,N/A,Rain,Light Rain,60,2012-12-17 11:55:00
7:15 AM,44.6,42.8,93,30.00,2.5,ENE,10.4,19.6,N/A,Rain,Light Rain,60,2012-12-17 12:15:00
7:35 AM,44.6,42.8,93,29.99,2.0,NE,15.0,-,N/A,Rain,Light Rain,50,2012-12-17 12:35:00
7:55 AM,44.6,42.8,93,29.99,1.2,NE,13.8,-,N/A,Rain,Light Rain,50,2012-12-17 12:55:00
8:15 AM,44.6,42.8,93,29.99,1.2,NE,16.1,21.9,N/A,Rain,Light Rain,50,2012-12-17 13:15:00
8:35 AM,44.6,44.6,100,29.99,1.2,NE,13.8,19.6,N/A,,Light Drizzle,50,2012-12-17 13:35:00
8:55 AM,44.6,44.6,100,29.99,1.0,ENE,15.0,19.6,N/A,,Light Drizzle,60,2012-12-17 13:55:00
9:15 AM,44.6,44.6,100,29.98,1.2,ENE,12.7,-,N/A,Rain,Light Rain,70,2012-12-17 14:15:00
9:35 AM,44.6,44.6,100,29.98,1.2,NE,13.8,19.6,N/A,,Light Drizzle,50,2012-12-17 14:35:00
9:55 AM,44.6,44.6,100,29.98,1.2,ENE,12.7,21.9,N/A,,Light Drizzle,60,2012-12-17 14:55:00
10:15 AM,44.6,44.6,100,29.97,1.5,NE,16.1,20.7,N/A,,Light Drizzle,50,2012-12-17 15:15:00
10:35 AM,46.4,44.6,93,29.97,2.0,ENE,12.7,18.4,N/A,,Light Drizzle,60,2012-12-17 15:35:00
10:55 AM,46.4,44.6,93,29.96,1.5,NE,13.8,-,N/A,Rain,Light Rain,50,2012-12-17 15:55:00
11:15 AM,46.4,44.6,93,29.96,1.8,NE,12.7,-,N/A,,Light Drizzle,50,2012-12-17 16:15:00
11:35 AM,46.4,44.6,93,29.95,2.0,ENE,12.7,17.3,N/A,Rain,Light Rain,60,2012-12-17 16:35:00
11:55 AM,46.4,44.6,93,29.95,2.0,ENE,8.1,-,N/A,,Light Drizzle,60,2012-12-17 16:55:00
12:15 PM,46.4,44.6,93,29.94,1.0,NE,10.4,-,N/A,Rain,Light Rain,50,2012-12-17 17:15:00
12:55 PM,46.4,46.4,100,29.93,0.8,NE,9.2,-,0.02,Rain,Light Rain,50,2012-12-17 17:55:00
1:15 PM,46.4,46.4,100,29.93,0.5,NE,8.1,-,N/A,Rain,Light Rain,40,2012-12-17 18:15:00
1:35 PM,46.4,46.4,100,29.93,0.8,NE,8.1,-,N/A,Rain,Light Rain,40,2012-12-17 18:35:00
1:55 PM,46.4,46.4,100,29.93,0.8,NE,8.1,-,N/A,Rain,Light Rain,40,2012-12-17 18:55:00
2:15 PM,46.4,46.4,100,29.91,0.8,NE,5.8,-,N/A,Rain,Light Rain,40,2012-12-17 19:15:00
2:35 PM,48.2,46.4,93,29.90,1.0,NE,9.2,-,N/A,Rain,Light Rain,50,2012-12-17 19:35:00
2:55 PM,48.2,46.4,93,29.93,1.0,East,4.6,-,N/A,,Light Drizzle,80,2012-12-17 19:55:00
3:15 PM,48.2,46.4,93,29.93,0.8,ENE,4.6,-,N/A,,Light Drizzle,60,2012-12-17 20:15:00
3:35 PM,48.2,46.4,93,29.89,0.8,ENE,8.1,-,N/A,,Drizzle,70,2012-12-17 20:35:00
3:55 PM,48.2,46.4,93,29.87,2.5,East,9.2,-,N/A,,Light Drizzle,80,2012-12-17 20:55:00
4:15 PM,48.2,46.4,93,29.91,2.5,East,5.8,-,N/A,,Light Drizzle,90,2012-12-17 21:15:00
4:35 PM,48.2,46.4,93,29.90,1.0,ENE,6.9,-,N/A,,Drizzle,70,2012-12-17 21:35:00
4:55 PM,46.4,46.4,100,29.88,1.5,East,10.4,16.1,0.01,,Drizzle,80,2012-12-17 21:55:00
7:15 PM,46.4,46.4,100,29.90,1.2,ENE,5.8,-,N/A,,Drizzle,70,2012-12-18 00:15:00
7:35 PM,46.4,46.4,100,29.89,1.5,East,4.6,-,N/A,,Drizzle,80,2012-12-18 00:35:00
7:55 PM,46.4,46.4,100,29.89,1.8,East,5.8,-,N/A,,Light Drizzle,80,2012-12-18 00:55:00
8:15 PM,48.2,46.4,93,29.88,4.0,ENE,3.5,-,N/A,,Light Drizzle,70,2012-12-18 01:15:00
8:35 PM,48.2,46.4,93,29.88,3.0,East,4.6,-,N/A,,Light Drizzle,80,2012-12-18 01:35:00
8:55 PM,48.2,46.4,93,29.87,2.0,East,5.8,-,N/A,,Light Drizzle,80,2012-12-18 01:55:00
9:15 PM,46.4,46.4,100,29.87,2.5,East,5.8,-,N/A,,Light Drizzle,80,2012-12-18 02:15:00
9:35 PM,46.4,46.4,100,29.83,4.0,East,9.2,-,N/A,,Light Drizzle,80,2012-12-18 02:35:00
9:55 PM,46.4,46.4,100,29.84,4.0,East,10.4,-,N/A,,Light Drizzle,90,2012-12-18 02:55:00
10:15 PM,48.2,46.4,93,29.83,2.5,ENE,10.4,-,N/A,,Light Drizzle,70,2012-12-18 03:15:00
10:55 PM,48.2,46.4,93,29.82,4.0,ENE,10.4,17.3,N/A,,Light Drizzle,70,2012-12-18 03:55:00
11:15 PM,48.2,46.4,93,29.79,3.0,ENE,12.7,18.4,N/A,,Drizzle,70,2012-12-18 04:15:00
11:35 PM,48.2,46.4,93,29.80,1.8,ENE,8.1,-,N/A,,Light Drizzle,70,2012-12-18 04:35:00
11:55 PM,48.2,46.4,93,29.79,1.2,East,4.6,-,N/A,,Drizzle,80,2012-12-18 04:55:00